Hourly Data Report for October 18, 2014

All times are specified in Local Standard Time (LST). Add 1 hour to adjust for Daylight Saving Time where and when it is observed.

KUGAARUK CLIMATE
NUNAVUT

68°32'15.060" N
89°47'47.020" W
15.80 m
2303094
71407
NBB

Download Data

Hourly Data (October 2014)
Hourly Data Report for October 18, 2014
Temp Definition
°C
Dew Point Temp Definition
°C
Rel Hum Definition
%
Wind Dir Definition
10's deg

Wind Spd Definition
km/h
Visibility Definition
km
Stn Press Definition
kPa
Hmdx Definition


Wind Chill Definition


Weather Definition


TIME
00:00 -10.0 -11.2 91 22 20   102.16   -18 LegendNANA
01:00 -11.0 -12.3 90 22 17   102.15   -18 LegendNANA
02:00 -11.4 -12.6 91 24 11   102.11   -17 LegendNANA
03:00 -12.0 -13.2 91 26 11   102.05   -18 LegendNANA
04:00 -13.3 -14.7 89 26 11   102.00   -20 LegendNANA
05:00 -14.8 -16.4 88 25 6   101.93   -19 LegendNANA
06:00 -17.4 -19.2 86 9 1   101.87   -18 LegendNANA
07:00 -18.5 -20.5 85 9 2   101.82   -20 LegendNANA
08:00 -18.2 -19.9 87 9 1   101.74   -19 LegendNANA
09:00 -18.0 -19.6 87 7 2   101.64   -20 LegendNANA
10:00 -17.9 -20.4 81 12 2   101.58   -19 LegendNANA
11:00 -16.5 -19.6 77 0 1   101.54   -17 LegendNANA
12:00 -15.7 -19.7 71 5 1   101.50   -16 LegendNANA
13:00 -16.4 -19.8 75   0   101.46     LegendNANA
14:00 -17.4 -19.8 81 7 1   101.40   -18 LegendNANA
15:00 -16.9 -19.0 84 5 2   101.36   -18 LegendNANA
16:00 -16.0 -17.9 85 6 2   101.30   -17 LegendNANA
17:00 -14.5 -16.3 86 10 2   101.22   -16 LegendNANA
18:00 -13.0 -14.8 87 10 1   101.15   -14 LegendNANA
19:00 -11.2 -12.9 87 12 1   101.10   -12 LegendNANA
20:00 -9.9 -11.7 87 6 5   101.05   -13 LegendNANA
21:00 -8.1 -9.7 88 7 5   100.98   -11 LegendNANA
22:00 -7.0 -8.9 87 7 6   100.92   -10 LegendNANA
23:00 -6.6 -8.6 86 14 7   100.83   -10 LegendNANA

Notes on Data Quality.

Legend

  • E = Estimated
  • M = Missing
  • NA = Not Available
  • ‡ = Partner data that is not subject to review by the National Climate Archives
Date modified: